TimeEDT,TemperatureF,Dew PointF,Humidity,Sea Level PressureIn,VisibilityMPH,Wind Direction,Wind SpeedMPH,Gust SpeedMPH,PrecipitationIn,Events,Conditions,WindDirDegrees,DateUTC
12:15 AM,75.2,75.2,100,30.16,1.2,Calm,Calm,-,N/A,,Mist,0,2013-09-11 04:15:00
12:35 AM,75.2,75.2,100,30.16,1.5,Calm,Calm,-,N/A,,Mist,0,2013-09-11 04:35:00
12:55 AM,75.2,75.2,100,30.16,2.0,Calm,Calm,-,N/A,,Clear,0,2013-09-11 04:55:00
1:15 AM,75.2,75.2,100,30.16,1.5,Calm,Calm,-,N/A,,Mist,0,2013-09-11 05:15:00
1:35 AM,75.2,75.2,100,30.16,2.5,Calm,Calm,-,N/A,,Clear,0,2013-09-11 05:35:00
1:55 AM,75.2,75.2,100,30.15,1.2,Calm,Calm,-,N/A,,Mist,0,2013-09-11 05:55:00
2:15 AM,75.2,75.2,100,30.15,1.5,Calm,Calm,-,N/A,,Mist,0,2013-09-11 06:15:00
2:35 AM,75.2,75.2,100,30.15,1.0,Calm,Calm,-,N/A,,Mist,0,2013-09-11 06:35:00
2:55 AM,73.4,73.4,100,30.14,0.2,Calm,Calm,-,N/A,Fog,Fog,0,2013-09-11 06:55:00
3:15 AM,73.4,73.4,100,30.14,1.0,Calm,Calm,-,N/A,,Mostly Cloudy,0,2013-09-11 07:15:00
3:35 AM,73.4,73.4,100,30.14,0.5,Calm,Calm,-,N/A,Fog,Fog,0,2013-09-11 07:35:00
3:55 AM,73.4,73.4,100,30.14,0.2,Calm,Calm,-,N/A,Fog,Fog,0,2013-09-11 07:55:00
4:15 AM,73.4,73.4,100,30.14,0.2,Calm,Calm,-,N/A,Fog,Fog,0,2013-09-11 08:15:00
4:35 AM,73.4,73.4,100,30.14,1.0,Calm,Calm,-,N/A,,Mostly Cloudy,0,2013-09-11 08:35:00
4:55 AM,73.4,73.4,100,30.14,0.5,Calm,Calm,-,N/A,Fog,Fog,0,2013-09-11 08:55:00
5:15 AM,73.4,73.4,100,30.14,0.8,Calm,Calm,-,N/A,,Mist,0,2013-09-11 09:15:00
5:35 AM,71.6,71.6,100,30.14,1.0,Calm,Calm,-,N/A,,Mist,0,2013-09-11 09:35:00
5:55 AM,71.6,71.6,100,30.14,0.2,Calm,Calm,-,N/A,Fog,Fog,0,2013-09-11 09:55:00
6:15 AM,73.4,73.4,100,30.15,0.2,Calm,Calm,-,N/A,Fog,Fog,0,2013-09-11 10:15:00
6:35 AM,71.6,71.6,100,30.15,0.5,Calm,Calm,-,N/A,Fog,Fog,0,2013-09-11 10:35:00
6:55 AM,71.6,71.6,100,30.16,0.2,Calm,Calm,-,N/A,Fog,Fog,0,2013-09-11 10:55:00
7:15 AM,71.6,71.6,100,30.16,0.8,Calm,Calm,-,N/A,,Overcast,0,2013-09-11 11:15:00
7:35 AM,71.6,71.6,100,30.16,0.5,Calm,Calm,-,N/A,Fog,Fog,0,2013-09-11 11:35:00
7:55 AM,73.4,73.4,100,30.17,1.2,Calm,Calm,-,N/A,,Mostly Cloudy,0,2013-09-11 11:55:00
8:15 AM,73.4,73.4,100,30.17,0.5,Calm,Calm,-,N/A,Fog,Fog,0,2013-09-11 12:15:00
8:35 AM,75.2,75.2,100,30.17,2.5,Calm,Calm,-,N/A,,Scattered Clouds,0,2013-09-11 12:35:00
8:55 AM,78.8,77.0,94,30.17,4.0,Calm,Calm,-,N/A,,Clear,0,2013-09-11 12:55:00
9:15 AM,80.6,80.6,100,30.17,7.0,Calm,Calm,-,N/A,,Clear,0,2013-09-11 13:15:00
9:35 AM,82.4,82.4,100,30.17,10.0,Calm,Calm,-,N/A,,Clear,0,2013-09-11 13:35:00
9:55 AM,84.2,82.4,94,30.17,10.0,Calm,Calm,-,N/A,,Clear,0,2013-09-11 13:55:00
10:15 AM,86.0,82.4,89,30.17,10.0,Calm,Calm,-,N/A,,Clear,0,2013-09-11 14:15:00
10:35 AM,87.8,78.8,75,30.16,10.0,Calm,Calm,-,N/A,,Clear,0,2013-09-11 14:35:00
10:41 AM,87.8,78.8,75,30.16,10.0,Calm,Calm,-,N/A,,Scattered Clouds,0,2013-09-11 14:41:00
10:55 AM,87.8,78.8,75,30.16,10.0,Calm,Calm,-,N/A,,Scattered Clouds,0,2013-09-11 14:55:00
11:00 AM,89.6,78.8,70,30.16,7.0,Calm,Calm,-,N/A,,Scattered Clouds,0,2013-09-11 15:00:00
11:15 AM,89.6,78.8,70,30.16,10.0,Calm,Calm,-,N/A,,Scattered Clouds,0,2013-09-11 15:15:00
11:20 AM,89.6,78.8,70,30.16,10.0,Calm,Calm,-,N/A,,Scattered Clouds,0,2013-09-11 15:20:00
11:35 AM,89.6,78.8,70,30.15,10.0,Calm,Calm,-,N/A,,Clear,0,2013-09-11 15:35:00
11:40 AM,91.4,78.8,66,30.15,10.0,Calm,Calm,-,N/A,,Clear,0,2013-09-11 15:40:00
11:55 AM,91.4,75.2,59,30.15,10.0,Calm,Calm,-,N/A,,Clear,0,2013-09-11 15:55:00
12:00 PM,91.4,75.2,59,30.15,10.0,Calm,Calm,-,N/A,,Clear,0,2013-09-11 16:00:00
12:15 PM,93.2,75.2,56,30.14,10.0,NE,3.5,-,N/A,,Clear,40,2013-09-11 16:15:00
12:21 PM,91.4,75.2,59,30.14,10.0,Calm,Calm,-,N/A,,Clear,0,2013-09-11 16:21:00
12:35 PM,93.2,77.0,59,30.14,10.0,ESE,3.5,-,N/A,,Clear,120,2013-09-11 16:35:00
12:40 PM,93.2,75.2,56,30.14,10.0,South,4.6,-,N/A,,Clear,180,2013-09-11 16:40:00
12:55 PM,95.0,75.2,53,30.13,10.0,Calm,Calm,-,N/A,,Clear,0,2013-09-11 16:55:00
1:00 PM,93.2,75.2,56,30.13,10.0,Calm,Calm,-,N/A,,Clear,0,2013-09-11 17:00:00
1:15 PM,93.2,75.2,56,30.12,10.0,ESE,3.5,-,N/A,,Clear,110,2013-09-11 17:15:00
1:35 PM,95.0,75.2,53,30.11,10.0,SE,3.5,-,N/A,,Clear,140,2013-09-11 17:35:00
1:55 PM,95.0,75.2,53,30.10,10.0,SW,3.5,-,N/A,,Clear,230,2013-09-11 17:55:00
2:15 PM,93.2,77.0,59,30.10,10.0,South,3.5,-,N/A,,Scattered Clouds,170,2013-09-11 18:15:00
2:35 PM,95.0,75.2,53,30.09,10.0,South,4.6,-,N/A,,Unknown,180,2013-09-11 18:35:00
2:55 PM,96.8,75.2,50,30.08,10.0,South,5.8,-,N/A,,Unknown,180,2013-09-11 18:55:00
3:15 PM,95.0,73.4,49,30.07,10.0,SSE,6.9,-,N/A,,Unknown,160,2013-09-11 19:15:00
3:35 PM,96.8,73.4,47,30.07,10.0,SSW,6.9,-,N/A,,Unknown,200,2013-09-11 19:35:00
3:55 PM,96.8,73.4,47,30.06,10.0,SW,8.1,-,N/A,,Unknown,220,2013-09-11 19:55:00
4:15 PM,95.0,75.2,53,30.06,10.0,South,9.2,-,N/A,,Unknown,180,2013-09-11 20:15:00
4:35 PM,93.2,73.4,52,30.05,10.0,South,8.1,-,N/A,,Unknown,170,2013-09-11 20:35:00
4:55 PM,95.0,73.4,49,30.05,10.0,SSW,9.2,-,N/A,,Scattered Clouds,200,2013-09-11 20:55:00
5:15 PM,93.2,75.2,56,30.04,10.0,SSW,8.1,-,N/A,,Clear,200,2013-09-11 21:15:00
5:35 PM,93.2,75.2,56,30.04,10.0,South,8.1,-,N/A,,Clear,180,2013-09-11 21:35:00
5:55 PM,93.2,75.2,56,30.04,10.0,South,9.2,-,N/A,,Clear,190,2013-09-11 21:55:00
6:15 PM,91.4,75.2,59,30.04,10.0,South,4.6,-,N/A,,Clear,190,2013-09-11 22:15:00
6:35 PM,89.6,75.2,62,30.04,10.0,South,5.8,-,N/A,,Clear,180,2013-09-11 22:35:00
6:55 PM,89.6,77.0,66,30.04,10.0,South,5.8,-,N/A,,Clear,180,2013-09-11 22:55:00
7:15 PM,87.8,77.0,70,30.05,10.0,South,4.6,-,N/A,,Clear,180,2013-09-11 23:15:00
7:35 PM,86.0,77.0,74,30.06,10.0,Calm,Calm,-,N/A,,Clear,0,2013-09-11 23:35:00
7:55 PM,82.4,80.6,94,30.06,10.0,Calm,Calm,-,N/A,,Clear,0,2013-09-11 23:55:00
8:15 PM,80.6,80.6,100,30.06,10.0,Calm,Calm,-,N/A,,Clear,0,2013-09-12 00:15:00
8:35 PM,80.6,80.6,100,30.06,10.0,Calm,Calm,-,N/A,,Clear,0,2013-09-12 00:35:00
8:55 PM,78.8,78.8,100,30.07,10.0,Calm,Calm,-,N/A,,Clear,0,2013-09-12 00:55:00
9:15 PM,80.6,80.6,100,30.06,7.0,Calm,Calm,-,N/A,,Clear,0,2013-09-12 01:15:00
9:35 PM,78.8,78.8,100,30.06,7.0,Calm,Calm,-,N/A,,Clear,0,2013-09-12 01:35:00
9:55 PM,78.8,78.8,100,30.05,7.0,Calm,Calm,-,N/A,,Clear,0,2013-09-12 01:55:00
10:15 PM,78.8,78.8,100,30.05,7.0,South,3.5,-,N/A,,Clear,180,2013-09-12 02:15:00
10:35 PM,78.8,78.8,100,30.04,7.0,Calm,Calm,-,N/A,,Clear,0,2013-09-12 02:35:00
10:55 PM,78.8,78.8,100,30.04,7.0,Calm,Calm,-,N/A,,Clear,0,2013-09-12 02:55:00
11:15 PM,77.0,77.0,100,30.04,5.0,Calm,Calm,-,N/A,,Clear,0,2013-09-12 03:15:00
11:35 PM,77.0,77.0,100,30.04,5.0,Calm,Calm,-,N/A,,Clear,0,2013-09-12 03:35:00
11:55 PM,77.0,77.0,100,30.03,7.0,Calm,Calm,-,N/A,,Clear,0,2013-09-12 03:55:00